Flag for U.S.A. Weather past 2 weeks in Montpelier, Vermont, U.S.A.

Now
47 °F

Passing clouds.


Feels Like: 41 °F
Forecast: 39 / 64 °F
Wind: 15 mph from Northwest

Location: Knapp State Airport

Current Time: Sep 22, 2014 at 8:23:57 PM

Latest Report: Sep 22, 2014 at 7:51 PM


Visibility: 10 mi

Pressure: 30.04 "Hg

Humidity: 64%

Dew point: 35 °F

Location of MontpelierLocation

Historic Weather in Montpelier — Graph

°F

Montpelier temperature yesterday

Maximum temperature yesterday: 76 °F (at 1:51 PM)
Minimum temperature yesterday: 54 °F (at 5:51 AM)
Average temperature yesterday: 66 °F

Past Weeks' High & Low Weather Summary

 TemperatureHumidityPressure
High76 °F (Sep 21, 1:51 PM)100% (Sep 8, 2:51 AM)30.47 "Hg (Sep 8, 2:51 AM)
Low30 °F (Sep 19, 4:51 AM)27% (Sep 19, 4:51 PM)29.55 "Hg (Sep 22, 1:51 AM)
Average52 °F81%30.14 "Hg
* Reported Sep 7 6:51 PM — Sep 22 6:51 PM, Montpelier, Weather by CustomWeather, © 2014

Note: Actual official high and low records may vary slightly from our data, if they occured in-between our weather recording intervals... More about our weather records

Advertising

Montpelier weather history for previous 24 hours

 ConditionsComfort  
Time TempWeatherWind HumidityBarometerVisibility
6:51 PM
Sep 22
47 °FPartly sunny.13 mph66%30.01 "Hg10 mi
5:51 PM48 °FOvercast.16 mph68%29.98 "Hg10 mi
4:51 PM49 °FOvercast.15 mph66%29.94 "Hg10 mi
3:51 PM51 °FOvercast.17 mph66%29.90 "Hg10 mi
2:51 PM56 °FPassing clouds.16 mph58%29.87 "Hg10 mi
1:51 PM51 °FMostly cloudy.8 mph74%29.86 "Hg10 mi
12:51 PM52 °FMostly cloudy.9 mph72%29.85 "Hg10 mi
11:51 AM52 °FOvercast.14 mph72%29.83 "Hg10 mi
10:51 AM51 °FMostly cloudy.14 mph71%29.80 "Hg10 mi
10:00 AM50 °FMostly cloudy.12 mph83%29.78 "Hg10 mi
8:51 AM51 °FCloudy.15 mph83%29.73 "Hg10 mi
7:51 AM52 °FScattered clouds.14 mph93%29.67 "Hg10 mi
6:51 AM57 °FLight rain. Overcast.9 mph87%29.63 "Hg9 mi
5:51 AM60 °FPassing clouds.8 mph75%29.58 "Hg10 mi
4:51 AM60 °FPassing clouds.13 mph80%29.57 "Hg10 mi
3:51 AM60 °FPassing clouds.8 mph80%29.56 "Hg10 mi
2:51 AM60 °FPassing clouds.6 mph80%29.55 "Hg10 mi
1:51 AM61 °FOvercast.6 mph87%29.55 "Hg10 mi
12:51 AM61 °FLight rain. Fog.No wind87%29.58 "Hg6 mi
11:51 PM
Sep 21
62 °FLight rain. Mostly cloudy.6 mph90%29.57 "Hg10 mi
10:51 PM67 °FOvercast.5 mph90%29.59 "Hg10 mi
9:51 PM68 °FLight rain. Overcast.7 mph87%29.60 "Hg7 mi
8:51 PM69 °FOvercast.10 mph81%29.61 "Hg10 mi
Weather by CustomWeather, © 2014

See weather overviewHow to use our weather pages